Location: ??????
(41.3164°N, 22.6615°E)
Time: 17:33:58
(UTC+00:00)

YAOGAN 1 - Pass Details

Date: 05 December 2022
Orbit: 616 x 618 km, 97.9° (Epoch: 27 January)

Event Time Altitude Azimuth Distance (km) Brightness Sun altitude
Rises 05:02:41 0° 32° (NNE) 2,902 6.1 -7.0°
Reaches altitude 10° 05:05:46 10° 56° (NE) 1,989 5.6 -6.5°
Maximum altitude 05:08:15 15° 92° (E) 1,679 6.0 -6.1°
Drops below altitude 10° 05:10:44 10° 127° (SE) 1,979 6.8 -5.6°
Sets 05:13:46 0° 151° (SSE) 2,878 7.0 -5.1°
